Location: Casilda
(33.0440°S, 61.1680°W)
Time: 17:01:05
(UTC-03:00)

ISS - Pass Details

Date: 26 September 2022
Orbit: 414 x 417 km, 51.6° (Epoch: 24 September)

Event Time Altitude Azimuth Distance (km) Brightness Sun altitude
Exits shadow 04:37:17 13° 160° (SSE) 1,327 -0.8 -27.7°
Drops below altitude 10° 04:37:49 10° 155° (SSE) 1,514 -0.4 -27.6°
Sets 04:40:07 0° 143° (SE) 2,383 0.9 -27.2°
